Location: Ferchesar
(52.6477°N, 12.4298°E)
Time: 15:32:15
(UTC+01:00)

deb Explorer IX - Pass Details

Date: 16 December 2021
Orbit: 544 x 1082 km, 38.8° (Epoch: 18 January)

Event Time Altitude Azimuth Distance (km) Brightness Sun altitude
Rises 06:06:09 0° 226° (SW) 3,745 - -18.3°
Exits shadow 06:06:37 - 225° (SW) 3,597 ? -18.2°
Reaches altitude 10° 06:09:44 10° 210° (SSW) 2,713 ? -17.8°
Maximum altitude 06:14:03 19° 169° (SSE) 2,035 ? -17.1°
Drops below altitude 10° 06:18:02 10° 126° (SE) 2,467 ? -16.6°
Sets 06:21:07 0° 109° (ESE) 3,293 ? -16.1°
